Location: Libas
(9.8833°N, 125.9833°E)
Time: 21:27:03
(UTC+00:00)

ERS-2 - Pass Details

Date: 27 October 2020
Orbit: 493 x 498 km, 98.6° (Epoch: 25 November)

Event Time Altitude Azimuth Distance (km) Brightness Sun altitude
Rises 20:30:59 0° 167° (SSE) 2,572 6.1 -14.0°
Reaches altitude 10° 20:33:03 10° 166° (SSE) 1,689 5.1 -13.5°
Maximum altitude 20:36:41 86° 77° (ENE) 499 2.1 -12.6°
Drops below altitude 10° 20:40:19 10° 349° (N) 1,684 4.6 -11.8°
Sets 20:42:22 0° 349° (N) 2,565 5.5 -11.3°
